Tracking 25949 objects as of 9-Aug-2022
HD Live streaming from Space Station
objects crossing your sky now

STARLINK-3505

Track STARLINK-3505 now!
10-day predictions
STARLINK-3505 is classified as:


NORAD ID: 51750
Int'l Code: 2022-016AN
Perigee: 545.5 km
Apogee: 548.2 km
Inclination: 53.2 °
Period: 95.4 minutes
Semi major axis: 6917 km
RCS: Unknown
Launch date: February 21, 2022
Source: United States (US)
Launch site: AIR FORCE EASTERN TEST RANGE (AFETR)
aabbcc
Your satellite tracking list
Your tracking list is empty




NASA's NSSDC Master Catalog

Two Line Element Set (TLE):
1 51750U 22016AN  22220.91667824  .00000392  00000-0  42729-4 0  9992
2 51750  53.2183  64.4410 0001953  62.3853 227.8682 15.08854267  1301
Source of the keplerian elements: AFSPC